Webcams

EDPO Webcam Blick Richtung Osten (local time)

Webcam-2

Info zum Bild:

  • Blick zum Kloster Mariahilf, Entfernung ca. 3km
  • Blick zur Kirche St. Johannes, Entfernung ca. 1km
  • Blick zu den beiden Windrädern, Entfernung ca. 6km

EDPO Webcam Blick Richtung Westen (local time)

Webcam-1

Info zum Bild:

  • Blick zum Tyrolsberg, Entfernung ca. 3,5km

Dillberg Webcam Blick Richtung Osten zu EDPO (local time)

Webcam-1

Info zum Bild:

  • Blick vom Dillberg Richtung Neumarkt, Höhe 555ft über EDPO

Dillberg Webcam Blick Richtung Westen zum Sender (local time)

Webcam-1

Info zum Bild:

  • Blick vom Dillberg Sender, Höhe bis Spitze 1322ft über EDPO
  • 600m Entfernung / Sichtweite von CAM zum Dillberg Sender

Wolfstein Webcam Blick Richtung Osten nach Neumarkt


Snapshot

Info zum Bild:

Nürnberger Fernsehturm (Rundum CAM)


METAR Informationen der nächstgelegenen Flughäfen


EDDN / Flughafen Nürnberg „Albrecht Dürer“

EDDN 171750Z VRB01KT CAVOK 14/09 Q1018 NOSIG

ETIC / Fliegerhorst Grafenwöhr AAF

ETIC 171756Z AUTO 00000KT 9999 CLR 11/10 A3009 RMK AO2 SLP201 T01110095 10205 20111 52007 $

ETIH / Fliegerhorst Hohenfels AAF

ETIH 171756Z AUTO 28003KT 9999 CLR 11/10 A3010 RMK AO2 SLP203 T01070099 10198 20107 53007 $